Airfield :
LOGIN :

Register | Disclaimer

   EN    FR    IT 

 










Legend :    VFR   Marginal VFR   IFR   Intensive IFR   Very Intensive IFR
Visi :
Ceiling :
>= 8 km
>= 3000ft
5 to 8 km
1000 to 3000 ft
1500m to 5 km
500 to 1000 ft
800 to 1500m
200 to 500 ft
< 800m
< 200 ft
Symbols :   Thunderstorms  Fog  Heavy snow  Heavy precipitations  Wind > 20 kt
SIGMETs :     Misc.  Thunderstorms  Icing  Turbulence  Mountain Waves  Volcanic Ashes






- Airport Elevation : 84 ft


LFBC - Cazaux

CURRENT METAR :
  • 272200Z AUTO 28006KT 250V310 9999 BKN006 BKN010 OVC042 13/13 Q1022

EXPIRED METARs :
  • 272130Z AUTO 26007KT 230V290 9999 OVC006 13/13 Q1022
  • 272100Z AUTO 26008KT 240V300 9999 BKN006 OVC036 13/13 Q1022
  • 272030Z AUTO 28009KT 250V320 9999 BKN006 OVC036 13/13 Q1022
  • 272000Z AUTO 26009KT 240V300 9999 OVC005 13/13 Q1022
  • 271930Z AUTO 27008KT 230V300 9999 OVC005 13/13 Q1022

Expired Forecast.



MET'MAP, your aeronautical weather chart ! - Copyright ORBIFLY December 2007 - Disclaimer

ORBIFLY MET'MAP TEAM :

Programming & Development : Alexandra Zaïnal
Concept & original design : Baudouin d'Aumeries
Assistance for programming : Marc-Olivier Méhu
Technical & hardware support : Manuel Goepfert

Contact : metmap@orbifly.com




SOURCES & CREDITS :

   NOAA